| time (UTC) | temp F | wind direction | speed MPH | gust MPH | rain 1hr in | rain 24hr in | rain mn in | humidity % | barometer mb |
| 20260509203520 | 75 | 196 | 4.0 | 10.0 | 0.00 | 0.00 | 0.00 | 68 | 986.2 |
| 20260509203020 | 74 | 199 | 7.0 | 11.0 | 0.00 | 0.00 | 0.00 | 67 | 986.2 |
| 20260509202520 | 74 | 177 | 6.0 | 11.0 | 0.00 | 0.00 | 0.00 | 67 | 986.3 |
| 20260509202020 | 74 | 175 | 6.0 | 11.0 | 0.00 | 0.00 | 0.00 | 67 | 986.3 |
| 20260509201519 | 74 | 182 | 6.0 | 10.0 | 0.00 | 0.00 | 0.00 | 68 | 986.3 |
| 20260509201021 | 74 | 159 | 4.0 | 8.0 | 0.00 | 0.00 | 0.00 | 67 | 986.3 |
| 20260509200517 | 74 | 162 | 4.0 | 9.0 | 0.00 | 0.00 | 0.00 | 68 | 986.4 |
| 20260509200017 | 74 | 166 | 4.0 | 10.0 | 0.00 | 0.00 | 0.00 | 69 | 986.5 |
| 20260509195517 | 73 | 180 | 6.0 | 11.0 | 0.00 | 0.01 | 0.00 | 69 | 986.5 |
| 20260509195016 | 73 | 198 | 5.0 | 11.0 | 0.00 | 0.01 | 0.00 | 70 | 986.5 |
| 20260509194517 | 73 | 175 | 7.0 | 10.0 | 0.00 | 0.01 | 0.00 | 70 | 986.6 |
| 20260509194015 | 73 | 128 | 5.0 | 10.0 | 0.00 | 0.01 | 0.00 | 69 | 986.5 |
| 20260509193519 | 73 | 198 | 5.0 | 10.0 | 0.00 | 0.01 | 0.00 | 70 | 986.6 |
| 20260509193014 | 74 | 173 | 6.0 | 9.0 | 0.00 | 0.01 | 0.00 | 68 | 986.6 |
| 20260509192513 | 74 | 109 | 4.0 | 8.0 | 0.00 | 0.01 | 0.00 | 68 | 986.6 |
| 20260509192025 | 73 | 174 | 4.0 | 9.0 | 0.00 | 0.01 | 0.00 | 71 | 986.7 |
| 20260509191511 | 73 | 157 | 4.0 | 9.0 | 0.00 | 0.01 | 0.00 | 70 | 986.8 |
| 20260509191009 | 73 | 167 | 5.0 | 8.0 | 0.00 | 0.01 | 0.00 | 69 | 986.8 |
| 20260509190508 | 72 | 177 | 4.0 | 10.0 | 0.00 | 0.01 | 0.00 | 71 | 986.9 |
| 20260509190007 | 72 | 170 | 5.0 | 10.0 | 0.00 | 0.01 | 0.00 | 72 | 986.9 |
| 20260509185506 | 72 | 171 | 4.0 | 7.0 | 0.00 | 0.01 | 0.00 | 72 | 987.0 |
| 20260509185005 | 71 | 192 | 4.0 | 9.0 | 0.00 | 0.01 | 0.00 | 73 | 987.1 |
| 20260509184511 | 70 | 168 | 5.0 | 12.0 | 0.00 | 0.01 | 0.00 | 74 | 987.1 |
| 20260509184002 | 70 | 171 | 6.0 | 12.0 | 0.00 | 0.01 | 0.00 | 74 | 987.1 |
| 20260509183502 | 70 | 194 | 3.0 | 9.0 | 0.00 | 0.01 | 0.00 | 75 | 987.1 |
| 20260509183103 | 69 | 190 | 2.0 | 8.0 | 0.00 | 0.01 | 0.00 | 76 | 987.2 |
| 20260509182558 | 69 | 165 | 2.0 | 8.0 | 0.00 | 0.01 | 0.00 | 76 | 987.1 |
| 20260509182056 | 69 | 184 | 4.0 | 7.0 | 0.00 | 0.01 | 0.00 | 77 | 987.3 |
| 20260509181556 | 68 | 174 | 4.0 | 8.0 | 0.00 | 0.01 | 0.00 | 78 | 987.2 |
| 20260509181054 | 67 | 185 | 5.0 | 8.0 | 0.00 | 0.01 | 0.00 | 80 | 987.3 |
| 20260509180553 | 67 | 181 | 3.0 | 8.0 | 0.00 | 0.01 | 0.00 | 80 | 987.3 |
| 20260509180052 | 66 | 211 | 3.0 | 8.0 | 0.00 | 0.01 | 0.00 | 82 | 987.3 |
| 20260509175550 | 66 | 211 | 3.0 | 8.0 | 0.00 | 0.01 | 0.00 | 83 | 987.5 |
| 20260509175048 | 65 | 171 | 3.0 | 8.0 | 0.00 | 0.01 | 0.00 | 84 | 987.3 |
| 20260509174547 | 64 | 161 | 4.0 | 7.0 | 0.00 | 0.01 | 0.00 | 86 | 987.4 |
| 20260509174046 | 64 | 172 | 5.0 | 7.0 | 0.00 | 0.01 | 0.00 | 88 | 987.4 |
| 20260509173544 | 63 | 169 | 5.0 | 7.0 | 0.00 | 0.01 | 0.00 | 90 | 987.4 |
| 20260509173054 | 62 | 207 | 3.0 | 6.0 | 0.00 | 0.01 | 0.00 | 94 | 987.3 |
| 20260509172541 | 61 | 171 | 2.0 | 9.0 | 0.00 | 0.01 | 0.00 | 96 | 987.4 |
| 20260509172040 | 60 | 173 | 4.0 | 9.0 | 0.00 | 0.01 | 0.00 | 97 | 987.4 |
| 20260509171548 | 60 | 173 | 3.0 | 6.0 | 0.00 | 0.01 | 0.00 | 97 | 987.4 |
| 20260509171037 | 59 | 168 | 3.0 | 6.0 | 0.00 | 0.01 | 0.00 | 97 | 987.4 |
| 20260509170537 | 59 | 165 | 2.0 | 6.0 | 0.00 | 0.01 | 0.00 | 97 | 987.4 |
| 20260509170041 | 58 | 163 | 1.0 | 5.0 | 0.00 | 0.01 | 0.00 | 97 | 987.4 |
| 20260509165533 | 58 | 163 | 1.0 | 3.0 | 0.00 | 0.01 | 0.00 | 97 | 987.4 |
| 20260509165032 | 57 | 162 | 1.0 | 5.0 | 0.00 | 0.01 | 0.00 | 97 | 987.4 |
| 20260509164533 | 57 | 157 | 1.0 | 5.0 | 0.00 | 0.01 | 0.00 | 97 | 987.5 |
| 20260509164033 | 57 | 157 | 2.0 | 5.0 | 0.00 | 0.01 | 0.00 | 97 | 987.5 |
| 20260509163529 | 57 | 157 | 0.0 | 3.0 | 0.00 | 0.01 | 0.00 | 97 | 987.5 |
| 20260509163029 | 57 | 157 | 1.0 | 3.0 | 0.00 | 0.01 | 0.00 | 97 | 987.5 |
| 20260509162528 | 57 | 157 | 0.0 | 5.0 | 0.00 | 0.01 | 0.00 | 97 | 987.6 |
| 20260509162028 | 57 | 157 | 1.0 | 6.0 | 0.00 | 0.01 | 0.00 | 97 | 987.6 |
| 20260509161526 | 57 | 156 | 2.0 | 6.0 | 0.00 | 0.01 | 0.00 | 97 | 987.6 |
| 20260509161025 | 57 | 96 | 0.0 | 2.0 | 0.00 | 0.01 | 0.00 | 97 | 987.7 |
| 20260509160524 | 56 | 96 | 0.0 | 0.0 | 0.00 | 0.01 | 0.00 | 97 | 987.6 |
| 20260509160024 | 56 | 96 | 0.0 | 0.0 | 0.00 | 0.01 | 0.00 | 97 | 987.6 |
| 20260509155522 | 56 | 96 | 0.0 | 0.0 | 0.00 | 0.10 | 0.00 | 97 | 987.6 |
| 20260509155026 | 56 | 182 | 0.0 | 0.0 | 0.00 | 0.10 | 0.00 | 97 | 987.6 |
| 20260509154521 | 56 | 182 | 0.0 | 0.0 | 0.00 | 0.10 | 0.00 | 97 | 987.6 |
| 20260509154020 | 55 | 182 | 0.0 | 0.0 | 0.00 | 0.10 | 0.00 | 97 | 987.5 |
| 20260509153519 | 55 | 182 | 0.0 | 0.0 | 0.00 | 0.10 | 0.00 | 97 | 987.6 |
| 20260509153017 | 55 | 182 | 0.0 | 0.0 | 0.00 | 0.10 | 0.00 | 97 | 987.6 |
| 20260509152518 | 55 | 182 | 0.0 | 0.0 | 0.00 | 0.10 | 0.00 | 97 | 987.6 |
| 20260509152017 | 55 | 182 | 0.0 | 0.0 | 0.00 | 0.10 | 0.00 | 97 | 987.6 |
| 20260509151515 | 54 | 182 | 0.0 | 0.0 | 0.00 | 0.10 | 0.00 | 97 | 987.4 |
| 20260509151015 | 54 | 182 | 0.0 | 0.0 | 0.00 | 0.10 | 0.00 | 97 | 987.5 |
| 20260509150514 | 54 | 182 | 0.0 | 0.0 | 0.00 | 0.10 | 0.00 | 97 | 987.5 |
| 20260509150014 | 54 | 182 | 0.0 | 2.0 | 0.00 | 0.10 | 0.00 | 97 | 987.6 |
| 20260509145514 | 54 | 182 | 0.0 | 2.0 | 0.00 | 0.10 | 0.00 | 97 | 987.5 |
| 20260509145017 | 54 | 182 | 0.0 | 2.0 | 0.00 | 0.10 | 0.00 | 97 | 987.6 |
| 20260509144512 | 54 | 182 | 0.0 | 0.0 | 0.00 | 0.10 | 0.00 | 97 | 987.5 |
| 20260509144012 | 54 | 182 | 0.0 | 1.0 | 0.00 | 0.10 | 0.00 | 97 | 987.6 |
| 20260509143511 | 54 | 182 | 0.0 | 2.0 | 0.00 | 0.10 | 0.00 | 97 | 987.5 |
| 20260509143013 | 53 | 182 | 0.0 | 3.0 | 0.00 | 0.10 | 0.00 | 96 | 987.6 |
| 20260509142510 | 53 | 182 | 0.0 | 3.0 | 0.00 | 0.10 | 0.00 | 96 | 987.5 |
| 20260509142012 | 54 | 182 | 0.0 | 0.0 | 0.00 | 0.10 | 0.00 | 96 | 987.5 |
| 20260509141518 | 54 | 182 | 0.0 | 0.0 | 0.00 | 0.10 | 0.00 | 96 | 987.4 |
| 20260509141007 | 54 | 182 | 0.0 | 0.0 | 0.00 | 0.10 | 0.00 | 96 | 987.4 |
| 20260509140506 | 54 | 182 | 0.0 | 0.0 | 0.00 | 0.10 | 0.00 | 96 | 987.4 |
| 20260509140006 | 54 | 182 | 0.0 | 0.0 | 0.00 | 0.10 | 0.00 | 96 | 987.4 |
| 20260509135506 | 54 | 182 | 0.0 | 0.0 | 0.00 | 0.10 | 0.00 | 96 | 987.4 |
| 20260509135005 | 54 | 182 | 0.0 | 0.0 | 0.00 | 0.10 | 0.00 | 96 | 987.3 |
| 20260509134504 | 54 | 182 | 0.0 | 0.0 | 0.00 | 0.10 | 0.00 | 96 | 987.3 |
| 20260509134003 | 54 | 182 | 0.0 | 0.0 | 0.00 | 0.10 | 0.00 | 96 | 987.4 |
| 20260509133603 | 54 | 182 | 0.0 | 0.0 | 0.00 | 0.10 | 0.00 | 96 | 987.3 |
| 20260509133001 | 54 | 182 | 0.0 | 0.0 | 0.00 | 0.10 | 0.00 | 97 | 987.3 |
| 20260509132601 | 54 | 182 | 0.0 | 0.0 | 0.00 | 0.10 | 0.00 | 96 | 987.3 |
| 20260509132102 | 54 | 182 | 0.0 | 0.0 | 0.00 | 0.10 | 0.00 | 96 | 987.1 |
| 20260509131635 | 54 | 182 | 0.0 | 0.0 | 0.00 | 0.10 | 0.00 | 96 | 987.1 |
| 20260509131100 | 54 | 182 | 0.0 | 0.0 | 0.00 | 0.10 | 0.00 | 96 | 987.0 |
| 20260509130600 | 54 | 182 | 0.0 | 0.0 | 0.00 | 0.10 | 0.00 | 96 | 986.9 |
| 20260509130130 | 54 | 182 | 0.0 | 0.0 | 0.00 | 0.10 | 0.00 | 96 | 986.9 |
| 20260509125558 | 54 | 182 | 0.0 | 0.0 | 0.00 | 0.10 | 0.00 | 96 | 986.8 |
| 20260509125059 | 54 | 182 | 0.0 | 0.0 | 0.00 | 0.10 | 0.00 | 96 | 986.9 |
| 20260509124558 | 54 | 182 | 0.0 | 0.0 | 0.00 | 0.10 | 0.00 | 96 | 986.7 |
| 20260509124059 | 54 | 182 | 0.0 | 0.0 | 0.00 | 0.10 | 0.00 | 96 | 986.8 |
| 20260509123559 | 54 | 182 | 0.0 | 0.0 | 0.00 | 0.10 | 0.00 | 96 | 986.7 |
| 20260509123103 | 54 | 182 | 0.0 | 0.0 | 0.00 | 0.10 | 0.00 | 96 | 986.8 |
| 20260509122557 | 54 | 182 | 0.0 | 0.0 | 0.00 | 0.10 | 0.00 | 96 | 986.8 |
| 20260509122100 | 54 | 182 | 0.0 | 0.0 | 0.00 | 0.10 | 0.00 | 96 | 986.7 |
| 20260509121557 | 54 | 182 | 0.0 | 0.0 | 0.00 | 0.10 | 0.00 | 96 | 986.8 |
| 20260509121100 | 54 | 182 | 0.0 | 0.0 | 0.00 | 0.10 | 0.00 | 96 | 986.7 |
| 20260509120559 | 54 | 182 | 0.0 | 0.0 | 0.00 | 0.10 | 0.00 | 96 | 986.7 |
| 20260509120105 | 54 | 182 | 0.0 | 0.0 | 0.00 | 0.10 | 0.00 | 96 | 986.7 |
| 20260509115556 | 54 | 182 | 0.0 | 0.0 | 0.00 | 0.10 | 0.00 | 96 | 986.7 |
| 20260509115056 | 54 | 182 | 0.0 | 0.0 | 0.00 | 0.10 | 0.00 | 96 | 986.8 |
| 20260509114609 | 54 | 182 | 0.0 | 0.0 | 0.00 | 0.10 | 0.00 | 96 | 986.9 |
| 20260509114056 | 54 | 182 | 0.0 | 0.0 | 0.00 | 0.10 | 0.00 | 96 | 986.9 |
| 20260509113555 | 54 | 182 | 0.0 | 0.0 | 0.00 | 0.10 | 0.00 | 96 | 986.9 |
| 20260509113058 | 54 | 182 | 0.0 | 0.0 | 0.00 | 0.10 | 0.00 | 96 | 986.9 |
| 20260509112554 | 54 | 182 | 0.0 | 0.0 | 0.00 | 0.10 | 0.00 | 96 | 986.8 |
| 20260509112056 | 53 | 182 | 0.0 | 0.0 | 0.00 | 0.10 | 0.00 | 96 | 986.9 |
| 20260509111555 | 53 | 182 | 0.0 | 0.0 | 0.00 | 0.10 | 0.00 | 96 | 986.9 |
| 20260509111054 | 53 | 182 | 0.0 | 0.0 | 0.00 | 0.10 | 0.00 | 96 | 986.9 |
| 20260509111020 | 53 | 182 | 0.0 | 0.0 | 0.00 | 0.10 | 0.00 | 96 | 987.0 |
| 20260509110555 | 53 | 182 | 0.0 | 0.0 | 0.00 | 0.10 | 0.00 | 96 | 986.9 |
| 20260509110104 | 53 | 182 | 0.0 | 0.0 | 0.00 | 0.10 | 0.00 | 96 | 986.9 |
| 20260509105556 | 53 | 182 | 0.0 | 0.0 | 0.00 | 0.10 | 0.00 | 96 | 986.9 |
| 20260509105053 | 53 | 182 | 0.0 | 0.0 | 0.00 | 0.10 | 0.00 | 95 | 986.9 |
| 20260509104558 | 53 | 182 | 0.0 | 0.0 | 0.00 | 0.10 | 0.00 | 95 | 986.9 |
| 20260509104052 | 53 | 182 | 0.0 | 0.0 | 0.00 | 0.10 | 0.00 | 95 | 987.0 |
| 20260509103554 | 54 | 182 | 0.0 | 0.0 | 0.00 | 0.10 | 0.00 | 95 | 986.9 |
| 20260509103052 | 54 | 182 | 0.0 | 0.0 | 0.00 | 0.10 | 0.00 | 96 | 986.9 |
| 20260509102552 | 54 | 182 | 0.0 | 0.0 | 0.00 | 0.10 | 0.00 | 96 | 987.0 |
| 20260509102052 | 54 | 182 | 0.0 | 0.0 | 0.00 | 0.10 | 0.00 | 95 | 987.0 |
| 20260509101553 | 54 | 182 | 0.0 | 0.0 | 0.00 | 0.10 | 0.00 | 96 | 987.0 |
| 20260509101055 | 54 | 182 | 0.0 | 0.0 | 0.00 | 0.10 | 0.00 | 96 | 987.0 |
| 20260509100551 | 53 | 182 | 0.0 | 0.0 | 0.00 | 0.10 | 0.00 | 95 | 987.0 |
| 20260509100053 | 53 | 182 | 0.0 | 0.0 | 0.00 | 0.10 | 0.00 | 95 | 987.0 |
| 20260509095553 | 53 | 182 | 0.0 | 0.0 | 0.00 | 0.10 | 0.00 | 95 | 987.0 |
| 20260509095050 | 53 | 182 | 0.0 | 0.0 | 0.00 | 0.10 | 0.00 | 95 | 986.9 |
| 20260509094554 | 53 | 182 | 0.0 | 0.0 | 0.00 | 0.10 | 0.00 | 95 | 986.9 |
| 20260509094050 | 53 | 182 | 0.0 | 0.0 | 0.00 | 0.10 | 0.00 | 95 | 986.9 |
| 20260509093550 | 53 | 182 | 0.0 | 0.0 | 0.00 | 0.10 | 0.00 | 95 | 987.0 |
| 20260509093050 | 53 | 182 | 0.0 | 0.0 | 0.00 | 0.10 | 0.00 | 95 | 987.0 |
| 20260509092552 | 53 | 182 | 0.0 | 0.0 | 0.00 | 0.10 | 0.00 | 95 | 987.0 |
| 20260509092049 | 53 | 182 | 0.0 | 0.0 | 0.00 | 0.10 | 0.00 | 95 | 987.0 |
| 20260509091549 | 53 | 182 | 0.0 | 0.0 | 0.00 | 0.10 | 0.00 | 95 | 987.0 |
| 20260509091049 | 53 | 182 | 0.0 | 0.0 | 0.00 | 0.10 | 0.00 | 94 | 987.1 |
| 20260509090549 | 53 | 182 | 0.0 | 0.0 | 0.00 | 0.10 | 0.00 | 94 | 987.0 |
| 20260509090100 | 53 | 182 | 0.0 | 0.0 | 0.00 | 0.10 | 0.00 | 94 | 987.1 |
| 20260509085547 | 53 | 182 | 0.0 | 0.0 | 0.00 | 0.10 | 0.00 | 95 | 987.1 |
| 20260509085047 | 53 | 182 | 0.0 | 0.0 | 0.00 | 0.10 | 0.00 | 94 | 987.1 |
| 20260509084557 | 53 | 182 | 0.0 | 0.0 | 0.00 | 0.10 | 0.00 | 94 | 987.1 |
| 20260509084048 | 53 | 182 | 0.0 | 0.0 | 0.00 | 0.10 | 0.00 | 94 | 987.1 |
| 20260509083546 | 53 | 182 | 0.0 | 0.0 | 0.00 | 0.10 | 0.00 | 94 | 987.1 |
| 20260509083049 | 53 | 182 | 0.0 | 0.0 | 0.00 | 0.10 | 0.00 | 94 | 987.2 |
| 20260509082545 | 53 | 182 | 0.0 | 0.0 | 0.00 | 0.10 | 0.00 | 94 | 987.2 |
| 20260509082044 | 54 | 182 | 0.0 | 0.0 | 0.00 | 0.10 | 0.00 | 93 | 987.3 |
| 20260509081545 | 54 | 182 | 0.0 | 0.0 | 0.00 | 0.10 | 0.00 | 94 | 987.3 |
| 20260509081043 | 54 | 182 | 0.0 | 0.0 | 0.00 | 0.10 | 0.00 | 94 | 987.4 |
| 20260509080542 | 54 | 182 | 0.0 | 0.0 | 0.00 | 0.10 | 0.00 | 93 | 987.4 |
| 20260509080041 | 54 | 182 | 0.0 | 0.0 | 0.00 | 0.10 | 0.00 | 93 | 987.4 |
| 20260509075541 | 54 | 182 | 0.0 | 0.0 | 0.00 | 0.10 | 0.00 | 93 | 987.5 |
| 20260509075041 | 55 | 182 | 0.0 | 0.0 | 0.00 | 0.10 | 0.00 | 94 | 987.5 |
| 20260509074548 | 55 | 182 | 0.0 | 0.0 | 0.00 | 0.10 | 0.00 | 93 | 987.5 |
| 20260509074041 | 55 | 182 | 0.0 | 0.0 | 0.00 | 0.10 | 0.00 | 94 | 987.6 |
| 20260509073541 | 55 | 182 | 0.0 | 0.0 | 0.00 | 0.10 | 0.00 | 93 | 987.5 |
| 20260509073039 | 55 | 182 | 0.0 | 0.0 | 0.00 | 0.10 | 0.00 | 93 | 987.4 |
| 20260509072544 | 55 | 182 | 0.0 | 0.0 | 0.00 | 0.10 | 0.00 | 93 | 987.5 |
| 20260509072039 | 55 | 182 | 0.0 | 0.0 | 0.00 | 0.10 | 0.00 | 93 | 987.5 |
| 20260509071539 | 55 | 182 | 0.0 | 0.0 | 0.00 | 0.10 | 0.00 | 93 | 987.5 |
| 20260509071038 | 55 | 182 | 0.0 | 0.0 | 0.00 | 0.10 | 0.00 | 93 | 987.4 |
| 20260509070539 | 55 | 182 | 0.0 | 0.0 | 0.00 | 0.10 | 0.00 | 93 | 987.5 |
| 20260509070037 | 55 | 182 | 0.0 | 0.0 | 0.00 | 0.10 | 0.00 | 93 | 987.6 |
| 20260509065539 | 55 | 182 | 0.0 | 0.0 | 0.00 | 0.10 | 0.10 | 93 | 987.5 |
| 20260509065037 | 55 | 182 | 0.0 | 0.0 | 0.00 | 0.10 | 0.10 | 93 | 987.5 |
| 20260509064537 | 55 | 182 | 0.0 | 0.0 | 0.00 | 0.10 | 0.10 | 93 | 987.5 |
| 20260509064037 | 55 | 182 | 0.0 | 0.0 | 0.00 | 0.10 | 0.10 | 93 | 987.5 |
| 20260509063536 | 55 | 182 | 0.0 | 0.0 | 0.00 | 0.10 | 0.10 | 92 | 987.6 |
| 20260509063035 | 55 | 182 | 0.0 | 0.0 | 0.00 | 0.10 | 0.10 | 92 | 987.6 |
| 20260509062536 | 55 | 182 | 0.0 | 0.0 | 0.00 | 0.10 | 0.10 | 92 | 987.6 |
| 20260509062036 | 55 | 182 | 0.0 | 0.0 | 0.00 | 0.10 | 0.10 | 92 | 987.6 |
| 20260509061536 | 55 | 182 | 0.0 | 0.0 | 0.00 | 0.10 | 0.10 | 92 | 987.7 |
| 20260509061035 | 56 | 182 | 0.0 | 0.0 | 0.00 | 0.10 | 0.10 | 92 | 987.7 |
| 20260509060535 | 56 | 182 | 0.0 | 0.0 | 0.00 | 0.10 | 0.10 | 92 | 987.7 |
| 20260509060036 | 56 | 182 | 0.0 | 0.0 | 0.00 | 0.10 | 0.10 | 92 | 987.7 |
| 20260509055536 | 56 | 182 | 0.0 | 0.0 | 0.00 | 0.10 | 0.10 | 92 | 987.7 |
| 20260509055035 | 56 | 182 | 0.0 | 0.0 | 0.00 | 0.10 | 0.10 | 92 | 987.8 |
| 20260509054542 | 56 | 182 | 0.0 | 0.0 | 0.00 | 0.10 | 0.10 | 92 | 987.8 |
| 20260509054033 | 56 | 182 | 0.0 | 0.0 | 0.00 | 0.10 | 0.10 | 92 | 987.8 |
| 20260509053534 | 56 | 182 | 0.0 | 0.0 | 0.00 | 0.10 | 0.10 | 91 | 987.8 |
| 20260509053115 | 56 | 182 | 0.0 | 0.0 | 0.00 | 0.10 | 0.10 | 91 | 987.8 |
| 20260509052536 | 56 | 182 | 0.0 | 0.0 | 0.00 | 0.10 | 0.10 | 91 | 987.8 |
| 20260509052032 | 56 | 182 | 0.0 | 0.0 | 0.00 | 0.10 | 0.10 | 91 | 987.7 |
| 20260509051542 | 56 | 182 | 0.0 | 0.0 | 0.00 | 0.10 | 0.10 | 91 | 987.8 |
| 20260509051033 | 56 | 182 | 0.0 | 0.0 | 0.00 | 0.10 | 0.10 | 91 | 987.8 |
| 20260509050532 | 56 | 182 | 0.0 | 0.0 | 0.00 | 0.10 | 0.10 | 91 | 987.7 |
| 20260509050043 | 56 | 182 | 0.0 | 0.0 | 0.00 | 0.10 | 0.10 | 90 | 987.8 |
| 20260509045531 | 56 | 182 | 0.0 | 0.0 | 0.00 | 0.10 | 0.10 | 90 | 987.7 |
| 20260509045031 | 57 | 182 | 0.0 | 0.0 | 0.00 | 0.10 | 0.10 | 89 | 987.6 |
| 20260509044531 | 57 | 182 | 0.0 | 0.0 | 0.00 | 0.10 | 0.10 | 89 | 987.5 |
| 20260509044032 | 57 | 182 | 0.0 | 0.0 | 0.00 | 0.10 | 0.10 | 90 | 987.5 |
| 20260509043532 | 57 | 182 | 0.0 | 0.0 | 0.00 | 0.10 | 0.10 | 90 | 987.4 |
| 20260509043031 | 58 | 182 | 0.0 | 0.0 | 0.00 | 0.10 | 0.10 | 90 | 987.3 |
| 20260509042531 | 58 | 182 | 0.0 | 0.0 | 0.00 | 0.10 | 0.10 | 90 | 987.3 |
| 20260509042030 | 58 | 182 | 0.0 | 0.0 | 0.00 | 0.10 | 0.10 | 90 | 987.4 |
| 20260509041531 | 58 | 182 | 0.0 | 0.0 | 0.00 | 0.10 | 0.10 | 89 | 987.3 |
| 20260509041029 | 58 | 182 | 0.0 | 0.0 | 0.00 | 0.10 | 0.10 | 89 | 987.3 |
| 20260509040530 | 58 | 182 | 0.0 | 0.0 | 0.00 | 0.10 | 0.10 | 88 | 987.2 |
| 20260509040030 | 58 | 182 | 0.0 | 0.0 | 0.00 | 0.10 | 0.10 | 88 | 987.1 |
| 20260509035530 | 58 | 182 | 0.0 | 0.0 | 0.00 | 0.10 | 0.10 | 88 | 987.0 |
| 20260509035034 | 58 | 182 | 0.0 | 0.0 | 0.00 | 0.10 | 0.10 | 88 | 987.0 |
| 20260509034530 | 59 | 182 | 0.0 | 0.0 | 0.00 | 0.10 | 0.10 | 87 | 987.0 |
| 20260509034031 | 59 | 182 | 0.0 | 0.0 | 0.00 | 0.10 | 0.10 | 87 | 986.9 |
| 20260509033529 | 59 | 182 | 0.0 | 0.0 | 0.00 | 0.10 | 0.10 | 87 | 986.9 |
| 20260509033029 | 59 | 182 | 0.0 | 0.0 | 0.00 | 0.10 | 0.10 | 86 | 986.9 |
| 20260509032529 | 59 | 182 | 0.0 | 0.0 | 0.00 | 0.10 | 0.10 | 86 | 986.8 |
| 20260509032028 | 59 | 182 | 0.0 | 0.0 | 0.00 | 0.10 | 0.10 | 85 | 986.7 |
| 20260509031528 | 60 | 182 | 0.0 | 0.0 | 0.00 | 0.10 | 0.10 | 85 | 986.7 |
| 20260509031028 | 60 | 182 | 0.0 | 0.0 | 0.00 | 0.10 | 0.10 | 84 | 986.7 |
| 20260509030528 | 61 | 182 | 0.0 | 0.0 | 0.00 | 0.10 | 0.10 | 83 | 986.7 |
| 20260509030033 | 61 | 182 | 0.0 | 0.0 | 0.00 | 0.10 | 0.10 | 83 | 986.6 |
| 20260509025528 | 61 | 182 | 0.0 | 0.0 | 0.00 | 0.10 | 0.10 | 83 | 986.7 |
| 20260509025027 | 62 | 182 | 0.0 | 0.0 | 0.00 | 0.10 | 0.10 | 83 | 986.6 |
| 20260509024529 | 62 | 182 | 0.0 | 0.0 | 0.00 | 0.10 | 0.10 | 82 | 986.6 |
| 20260509024029 | 62 | 182 | 0.0 | 0.0 | 0.00 | 0.10 | 0.10 | 82 | 986.7 |
| 20260509023529 | 63 | 182 | 0.0 | 0.0 | 0.00 | 0.10 | 0.10 | 81 | 986.6 |
| 20260509023030 | 63 | 182 | 0.0 | 4.0 | 0.00 | 0.10 | 0.10 | 81 | 986.6 |
| 20260509022530 | 63 | 182 | 1.0 | 4.0 | 0.00 | 0.10 | 0.10 | 81 | 986.6 |
| 20260509022030 | 63 | 182 | 1.0 | 4.0 | 0.00 | 0.10 | 0.10 | 80 | 986.5 |
| 20260509021527 | 64 | 182 | 2.0 | 4.0 | 0.00 | 0.10 | 0.10 | 80 | 986.5 |
| 20260509021026 | 64 | 182 | 2.0 | 4.0 | 0.00 | 0.10 | 0.10 | 79 | 986.5 |
| 20260509020526 | 65 | 182 | 2.0 | 4.0 | 0.00 | 0.10 | 0.10 | 79 | 986.3 |
| 20260509020026 | 65 | 188 | 2.0 | 4.0 | 0.00 | 0.10 | 0.10 | 78 | 986.3 |
| 20260509015526 | 65 | 188 | 2.0 | 4.0 | 0.00 | 0.10 | 0.10 | 78 | 986.3 |
| 20260509015027 | 65 | 187 | 2.0 | 4.0 | 0.00 | 0.10 | 0.10 | 78 | 986.3 |
| 20260509014528 | 66 | 187 | 1.0 | 4.0 | 0.00 | 0.10 | 0.10 | 78 | 986.2 |
| 20260509014025 | 65 | 184 | 2.0 | 4.0 | 0.00 | 0.10 | 0.10 | 79 | 986.2 |
| 20260509013528 | 65 | 184 | 2.0 | 4.0 | 0.00 | 0.10 | 0.10 | 79 | 986.3 |
| 20260509013028 | 65 | 184 | 1.0 | 5.0 | 0.00 | 0.10 | 0.10 | 79 | 986.3 |
| 20260509012524 | 65 | 184 | 2.0 | 5.0 | 0.00 | 0.10 | 0.10 | 79 | 986.4 |
| 20260509012026 | 66 | 179 | 2.0 | 5.0 | 0.00 | 0.10 | 0.10 | 79 | 986.3 |
| 20260509011524 | 65 | 179 | 2.0 | 5.0 | 0.00 | 0.10 | 0.10 | 78 | 986.4 |
| 20260509011024 | 66 | 179 | 2.0 | 7.0 | 0.00 | 0.10 | 0.10 | 78 | 986.5 |
| 20260509010523 | 65 | 178 | 5.0 | 7.0 | 0.00 | 0.10 | 0.10 | 78 | 986.5 |
| 20260509010023 | 66 | 176 | 4.0 | 7.0 | 0.00 | 0.10 | 0.10 | 78 | 986.4 |
| 20260509005526 | 66 | 165 | 4.0 | 6.0 | 0.00 | 0.10 | 0.10 | 78 | 986.5 |
| 20260509005023 | 66 | 192 | 3.0 | 7.0 | 0.00 | 0.10 | 0.10 | 79 | 986.4 |
| 20260509004527 | 66 | 165 | 4.0 | 6.0 | 0.00 | 0.10 | 0.10 | 79 | 986.4 |
| 20260509004024 | 66 | 141 | 4.0 | 8.0 | 0.00 | 0.10 | 0.10 | 78 | 986.5 |
| 20260509003523 | 66 | 190 | 4.0 | 8.0 | 0.00 | 0.10 | 0.10 | 78 | 986.5 |
| 20260509003041 | 66 | 153 | 5.0 | 9.0 | 0.00 | 0.10 | 0.10 | 78 | 986.5 |
| 20260509002522 | 66 | 206 | 4.0 | 7.0 | 0.00 | 0.10 | 0.10 | 78 | 986.5 |
| 20260509002023 | 67 | 207 | 4.0 | 9.0 | 0.00 | 0.10 | 0.10 | 77 | 986.4 |
| 20260509001522 | 67 | 151 | 5.0 | 9.0 | 0.00 | 0.10 | 0.10 | 77 | 986.4 |
| 20260509001021 | 68 | 186 | 5.0 | 8.0 | 0.00 | 0.10 | 0.10 | 76 | 986.4 |
| 20260509000524 | 67 | 210 | 3.0 | 8.0 | 0.00 | 0.10 | 0.10 | 76 | 986.4 |
| 20260509000021 | 68 | 205 | 5.0 | 9.0 | 0.00 | 0.10 | 0.10 | 76 | 986.4 |
| 20260508235521 | 68 | 167 | 5.0 | 9.0 | 0.00 | 0.10 | 0.10 | 75 | 986.4 |
| 20260508235021 | 69 | 210 | 4.0 | 9.0 | 0.00 | 0.10 | 0.10 | 74 | 986.5 |
| 20260508234525 | 69 | 175 | 4.0 | 10.0 | 0.00 | 0.10 | 0.10 | 75 | 986.5 |
| 20260508234020 | 69 | 180 | 5.0 | 10.0 | 0.00 | 0.10 | 0.10 | 74 | 986.6 |
| 20260508233520 | 69 | 229 | 5.0 | 9.0 | 0.00 | 0.10 | 0.10 | 74 | 986.6 |
| 20260508233019 | 69 | 173 | 3.0 | 10.0 | 0.00 | 0.10 | 0.10 | 75 | 986.6 |
| 20260508232518 | 70 | 202 | 5.0 | 9.0 | 0.00 | 0.10 | 0.10 | 74 | 986.6 |
| 20260508232019 | 70 | 205 | 4.0 | 9.0 | 0.00 | 0.10 | 0.10 | 74 | 986.6 |
| 20260508231517 | 69 | 184 | 4.0 | 10.0 | 0.00 | 0.10 | 0.10 | 74 | 986.8 |
| 20260508231017 | 69 | 194 | 4.0 | 9.0 | 0.00 | 0.10 | 0.10 | 74 | 986.9 |
| 20260508230516 | 70 | 190 | 4.0 | 10.0 | 0.00 | 0.10 | 0.10 | 74 | 986.9 |
| 20260508230016 | 70 | 181 | 6.0 | 10.0 | 0.00 | 0.10 | 0.10 | 74 | 986.9 |
| 20260508225521 | 70 | 173 | 7.0 | 12.0 | 0.00 | 0.10 | 0.10 | 72 | 987.0 |
| 20260508225016 | 71 | 182 | 6.0 | 12.0 | 0.00 | 0.10 | 0.10 | 73 | 987.0 |
| 20260508224514 | 70 | 203 | 5.0 | 10.0 | 0.00 | 0.10 | 0.10 | 73 | 987.0 |
| 20260508224014 | 70 | 173 | 5.0 | 10.0 | 0.00 | 0.10 | 0.10 | 73 | 987.1 |
| 20260508223517 | 70 | 236 | 5.0 | 10.0 | 0.00 | 0.10 | 0.10 | 73 | 987.1 |
| 20260508223017 | 71 | 182 | 6.0 | 10.0 | 0.00 | 0.10 | 0.10 | 72 | 987.2 |
| 20260508222513 | 71 | 186 | 4.0 | 10.0 | 0.00 | 0.10 | 0.10 | 72 | 987.2 |
| 20260508222012 | 71 | 233 | 4.0 | 10.0 | 0.00 | 0.10 | 0.10 | 72 | 987.4 |
| 20260508221517 | 71 | 179 | 7.0 | 11.0 | 0.00 | 0.10 | 0.10 | 72 | 987.5 |
| 20260508221012 | 71 | 200 | 5.0 | 10.0 | 0.00 | 0.10 | 0.10 | 73 | 987.4 |
| 20260508220516 | 71 | 190 | 5.0 | 9.0 | 0.00 | 0.10 | 0.10 | 72 | 987.6 |
| 20260508220016 | 71 | 182 | 6.0 | 9.0 | 0.00 | 0.10 | 0.10 | 71 | 987.7 |
| 20260508215511 | 71 | 169 | 5.0 | 10.0 | 0.00 | 0.10 | 0.10 | 71 | 987.7 |
| 20260508215011 | 72 | 190 | 4.0 | 9.0 | 0.00 | 0.10 | 0.10 | 71 | 987.7 |
| 20260508214511 | 72 | 176 | 5.0 | 9.0 | 0.00 | 0.10 | 0.10 | 71 | 987.7 |
| 20260508214009 | 71 | 202 | 4.0 | 14.0 | 0.00 | 0.10 | 0.10 | 72 | 987.8 |
| 20260508213509 | 72 | 205 | 5.0 | 14.0 | 0.00 | 0.10 | 0.10 | 72 | 987.8 |
| 20260508213008 | 71 | 188 | 4.0 | 10.0 | 0.00 | 0.10 | 0.10 | 73 | 987.9 |
| 20260508212509 | 71 | 237 | 4.0 | 10.0 | 0.00 | 0.10 | 0.10 | 73 | 988.0 |
| 20260508212007 | 71 | 167 | 6.0 | 10.0 | 0.00 | 0.10 | 0.10 | 73 | 988.0 |
| 20260508211506 | 70 | 159 | 6.0 | 11.0 | 0.00 | 0.10 | 0.10 | 73 | 988.1 |
| 20260508211006 | 71 | 202 | 5.0 | 10.0 | 0.00 | 0.10 | 0.10 | 72 | 988.1 |
| 20260508210505 | 71 | 180 | 5.0 | 10.0 | 0.00 | 0.10 | 0.10 | 72 | 988.2 |
| 20260508210004 | 71 | 186 | 6.0 | 10.0 | 0.00 | 0.10 | 0.10 | 74 | 988.3 |
| 20260508205504 | 70 | 227 | 5.0 | 10.0 | 0.00 | 0.10 | 0.10 | 73 | 988.3 |
| 20260508205004 | 71 | 199 | 7.0 | 9.0 | 0.00 | 0.10 | 0.10 | 72 | 988.4 |
| 20260508204506 | 71 | 213 | 5.0 | 8.0 | 0.00 | 0.10 | 0.10 | 74 | 988.4 |
| 20260508204002 | 71 | 174 | 5.0 | 10.0 | 0.00 | 0.10 | 0.10 | 74 | 988.4 |